This is the latest recevied weather packets stored in our database for station/object HK6LRQ-25. If no packets are shown the sender has not sent any weather packets the latest 10 day(s).
| Time | Temp. | Humidity | Pressure | Rain* | Wind** | Luminosity | Snow |
|---|---|---|---|---|---|---|---|
| 1777867403 | 15° C | 91% | 1016 hPa | 0 mm | - | - | - |
| 1777865602 | 15.56° C | 93% | 1016 hPa | 0 mm | - | - | - |
| 1777863801 | 15.56° C | 91% | 1016 hPa | 0 mm | - | - | - |
| 1777862000 | 16.11° C | 92% | 1016 hPa | 0 mm | - | - | - |
| 1777860199 | 16.11° C | 91% | 1015 hPa | 0 mm | - | - | - |
| 1777858398 | 16.67° C | 93% | 1015 hPa | 0 mm | - | - | - |
| 1777856597 | 16.67° C | 90% | 1014 hPa | 0 mm | - | - | - |
| 1777854796 | 17.22° C | 92% | 1013 hPa | 0 mm | - | - | - |
| 1777852994 | 14.44° C | 91% | 1012 hPa | 0 mm | - | - | - |
| 1777851194 | 17.78° C | 91% | 1012 hPa | 0 mm | - | - | - |
| 1777849392 | 15° C | 90% | 1011 hPa | 0 mm | - | - | - |
| 1777847591 | 18.33° C | 90% | 1011 hPa | 0 mm | - | - | - |
| 1777845790 | 18.33° C | 88% | 1010 hPa | 0 mm | - | - | - |
| 1777843989 | 18.89° C | 88% | 1010 hPa | 0 mm | - | - | - |
| 1777842188 | 18.89° C | 87% | 1010 hPa | 0 mm | - | - | - |
| 1777840387 | 19.44° C | 86% | 1010 hPa | 0 mm | - | - | - |
| 1777838586 | 19.44° C | 84% | 1010 hPa | 0 mm | - | - | - |
| 1777836785 | 19.44° C | 82% | 1010 hPa | 0 mm | - | - | - |
| 1777834984 | 19.44° C | 83% | 1011 hPa | 0 mm | - | - | - |
| 1777833183 | 19.44° C | 78% | 1010 hPa | 0 mm | - | - | - |
| 1777831382 | 20° C | 79% | 1012 hPa | 0 mm | - | - | - |
| 1777829581 | 20° C | 80% | 1012 hPa | 0 mm | - | - | - |
| 1777827779 | 20° C | 86% | 1014 hPa | 0 mm | - | - | - |
| 1777825978 | 20.56° C | 80% | 1013 hPa | 0 mm | - | - | - |
| 1777824177 | 21.11° C | 90% | 1015 hPa | 0 mm | - | - | - |
* Rain latest hour (hover to see other rain measurements)
** Current wind speed in m/s (hover to see current wind gust speed)